Temperature
18 16 16 17 17 18 18 17 17 17 18 17 17 16 16 16 16 16 16 16 17 17 17 17 17 17 17 17 17 16 16 16 16 16 16 16 15 15 15 15 15 15 15 14
16 17 18 18 18 18 17 17 17 17 18 18 17 16 16 16 16 16 16 16 17 17 17 17 17 17 17 17 16 16 16 16 16 16 16 15 15 15 15 15 14 14 14 14
17 18 18 18 18 18 17 17 17 17 17 17 17 16 16 16 16 16 16 17 17 17 17 17 17 17 17 16 16 16 16 16 16 16 15 15 15 15 15 15 14 14 14 14
17 18 18 18 18 18 17 18 18 17 16 15 16 15 16 15 15 15 16 16 16 17 17 17 17 17 17 17 16 16 16 16 15 15 15 15 15 15 15 14 14 14 14 14
17 18 18 18 18 18 18 17 17 17 16 15 15 15 15 15 15 15 15 16 16 17 17 17 17 17 17 16 16 16 16 15 15 15 15 15 15 15 14 14 14 14 14 14
17 18 18 18 18 18 17 16 16 14 14 15 15 15 15 14 15 15 15 16 16 16 17 17 17 17 17 16 16 16 15 15 15 15 15 15 15 15 14 14 14 14 14 14
17 17 18 18 18 17 17 15 15 15 14 14 15 15 15 15 15 15 15 16 16 17 16 16 16 17 16 16 16 16 15 15 15 15 15 15 14 14 14 14 14 14 14 14
16 16 17 17 18 17 16 16 15 15 14 14 14 14 15 15 15 16 16 16 16 16 16 16 16 16 16 16 16 15 15 15 15 15 14 14 14 14 14 14 14 14 14 13
15 15 17 17 17 17 16 15 15 14 14 14 14 14 15 15 15 15 15 15 16 16 16 16 16 16 16 16 15 15 15 15 15 15 14 14 14 14 14 14 14 14 13 13
15 15 16 16 17 16 16 14 13 13 14 14 14 14 14 15 15 14 14 14 15 16 16 16 16 16 15 15 15 15 15 15 15 15 14 14 14 14 14 14 14 14 13 13
15 14 15 15 16 16 15 15 13 12 13 13 14 14 15 15 14 14 14 15 15 15 15 15 15 15 15 15 15 15 15 14 14 14 14 14 14 14 14 14 13 13 13 13
13 12 13 14 15 15 15 14 13 14 13 12 12 13 15 14 14 14 14 15 15 15 15 15 15 15 15 15 14 14 14 14 14 14 14 14 14 13 13 13 13 13 13 13
13 12 13 14 14 14 14 14 13 12 11 11 12 14 14 13 14 14 14 15 15 15 15 15 15 15 14 14 14 14 14 14 14 14 14 13 13 13 13 13 13 13 12 12
13 12 12 13 13 13 14 14 13 13 12 11 12 13 14 13 13 13 14 15 15 15 15 14 14 14 14 14 14 14 14 13 13 13 13 13 13 13 13 13 13 12 12 12
12 12 13 13 13 13 14 14 13 13 12 12 13 13 13 13 13 13 14 14 14 14 14 14 14 14 14 13 13 13 13 13 13 13 13 13 13 13 13 12 12 12 12 12
11 12 12 13 13 13 13 13 13 13 13 12 12 12 13 13 13 13 13 13 13 14 14 14 14 14 13 13 13 13 13 13 13 13 12 12 12 12 12 12 12 12 12 12
10 11 11 11 12 13 12 13 13 13 12 12 12 13 12 12 12 12 13 13 14 14 14 14 14 13 13 13 13 13 13 12 12 12 12 12 12 12 12 12 12 12 11 11
10 10 9 10 12 12 12 13 13 13 13 12 12 12 12 12 13 13 13 13 13 14 14 14 13 13 13 13 13 12 12 12 12 12 12 12 12 11 11 11 11 11 11 11
9 9 9 9 10 11 12 12 12 12 12 12 12 12 12 12 12 12 13 13 13 14 14 13 13 13 13 12 12 12 12 12 12 12 11 11 11 11 11 11 11 11 11 11
8 9 9 9 11 11 12 13 13 12 12 12 12 11 11 11 10 11 13 13 13 13 13 13 12 12 12 12 12 11 11 11 11 11 11 11 11 11 11 10 10 10 10 10
9 9 9 9 10 10 11 12 12 12 12 12 12 12 12 11 11 13 13 13 13 13 12 12 12 12 11 11 11 11 11 11 11 11 11 11 10 10 10 10 10 10 10 10
9 8 8 8 9 10 11 11 11 11 12 12 12 12 12 12 13 12 13 12 12 12 12 12 11 11 11 11 11 11 11 11 10 10 10 10 10 10 10 10 10 9 9 9
8 9 8 9 10 10 11 11 12 12 12 12 12 12 12 12 12 12 12 12 12 11 11 11 11 11 10 10 10 10 10 10 10 10 10 10 10 10 9 9 9 9 9 9
8 8 7 8 8 10 11 11 12 12 12 12 12 12 12 12 12 12 11 11 11 11 11 10 10 10 10 10 10 10 10 10 9 9 9 9 9 9 9 9 9 9 9 9
8 7 7 7 8 9 11 12 12 12 12 12 12 12 12 11 11 11 11 10 10 10 10 10 10 10 10 9 9 9 9 9 9 9 9 9 8 9 8 8 8 8 8 8
6 7 7 8 9 9 10 11 11 11 11 11 11 11 11 11 10 10 10 10 10 10 10 9 9 9 9 9 8 8 8 8 8 8 8 8 8 8 8 8 8 8 8 8
Wind_Speed
3 4 3 5 5 4 4 3 3 4 2 3 4 4 5 5 5 5 5 6 6 6 3 2 3 4 4 4 4 4 4 4 4 3 3 3 1 1 1 1 2 3 3 4
5 1 5 4 4 4 3 2 2 2 0 3 3 4 4 4 6 7 8 8 8 5 3 3 3 4 4 4 4 4 4 5 4 3 3 2 2 1 1 1 2 2 2 3
3 4 2 5 4 4 2 4 4 3 1 2 1 4 3 2 3 3 4 5 6 7 7 6 5 4 4 5 5 5 5 5 4 3 3 3 3 3 2 1 0 0 1 2
1 2 2 4 3 5 4 4 4 3 2 1 1 2 5 3 3 3 4 4 6 6 6 6 6 6 6 6 5 4 4 5 4 4 5 5 4 2 2 2 1 0 1 1
2 1 2 3 4 5 4 2 3 2 3 1 1 1 6 2 3 5 5 5 6 6 7 7 8 8 7 5 5 4 4 4 4 5 5 5 4 3 1 1 1 1 0 1
2 1 2 3 1 3 4 5 4 4 3 1 2 3 5 3 5 5 4 4 4 5 6 6 5 5 4 4 4 4 5 4 4 5 5 5 5 4 3 2 2 1 0 0
4 3 2 1 3 2 5 5 3 3 2 4 2 3 6 5 4 4 4 4 3 4 5 4 4 5 5 5 5 5 6 5 5 5 5 5 5 5 5 4 3 3 2 2
1 3 3 2 3 3 3 7 6 4 3 4 1 4 5 3 2 2 2 2 1 2 3 4 5 5 6 7 7 6 6 5 5 6 5 5 4 4 3 4 4 4 3 3
3 4 4 2 0 6 5 3 5 5 2 1 4 5 5 1 2 2 1 2 0 1 1 2 3 3 4 5 6 7 7 6 6 6 5 4 4 4 4 4 3 3 2 2
4 2 3 3 3 3 4 7 5 4 3 2 5 4 3 3 3 1 0 1 2 1 0 0 1 2 3 4 4 5 5 6 6 5 5 4 4 4 4 3 3 3 3 3
2 2 4 3 1 1 3 3 4 3 4 4 3 5 4 5 4 3 4 3 2 2 1 1 1 1 2 2 3 3 3 3 3 4 4 4 3 3 3 3 3 3 3 3
2 4 1 4 4 2 3 4 5 4 3 3 3 6 3 3 3 3 3 2 2 2 1 1 0 1 1 1 2 2 2 3 3 4 4 4 3 3 3 3 3 3 3 3
3 4 2 4 4 3 2 2 3 4 4 4 4 6 3 3 2 1 2 2 2 1 1 1 1 1 1 1 1 2 2 3 2 3 3 3 3 3 3 3 3 3 3 2
3 3 5 6 5 3 2 2 2 4 4 5 7 7 6 5 4 3 2 2 1 1 1 1 0 0 1 1 1 1 2 2 2 2 2 2 3 3 3 3 2 2 3 3
4 2 3 4 4 3 3 5 4 5 7 8 7 7 7 5 5 4 2 1 0 0 0 1 1 1 1 0 0 0 1 1 2 2 2 2 1 1 1 2 2 2 2 3
3 2 1 2 2 2 4 7 6 6 6 7 5 7 6 4 2 1 1 2 1 2 2 2 2 2 2 2 1 1 1 1 2 2 2 2 1 1 1 2 2 2 2 2
1 3 2 3 4 3 6 7 7 5 5 6 7 7 3 1 2 3 3 3 4 3 3 3 3 3 3 3 3 3 3 2 2 2 2 1 2 1 1 1 2 2 2 2
5 4 3 1 1 6 7 2 4 5 5 6 5 4 4 5 4 3 3 4 3 3 3 3 3 3 3 2 2 2 1 1 2 2 1 1 2 2 1 1 2 2 2 3
5 6 3 3 3 7 6 3 4 4 5 5 5 4 3 2 2 3 2 3 4 4 3 3 3 2 2 2 2 1 1 1 1 2 2 2 2 2 2 3 3 2 2 2
3 4 4 3 3 6 5 2 1 3 4 3 4 5 3 3 1 4 3 2 2 2 1 1 1 0 1 2 1 2 2 2 3 3 3 3 2 2 3 4 3 2 2 3
2 2 4 4 5 7 5 2 2 3 5 2 2 3 4 4 5 4 2 1 2 1 1 1 1 1 2 2 2 2 2 3 4 3 2 2 2 2 3 2 2 2 2 2
5 5 5 5 5 7 2 2 4 5 2 1 1 2 3 4 3 2 1 1 1 1 1 1 1 1 2 2 2 3 4 4 2 1 1 2 2 2 1 1 1 2 2 2
5 6 5 7 7 3 2 4 3 2 2 2 2 3 3 3 2 2 1 1 1 1 1 1 1 2 2 2 2 3 4 2 2 1 2 2 2 1 2 2 2 2 3 3
4 2 3 3 6 5 5 4 3 2 3 4 4 3 2 3 3 2 2 2 2 2 2 1 1 1 2 3 2 3 3 2 2 2 2 2 1 1 1 2 2 3 3 3
5 4 3 5 6 4 4 5 4 3 3 3 3 2 3 3 3 3 3 3 3 2 2 2 2 3 4 3 2 2 2 3 2 2 2 2 2 2 2 2 3 4 4 5
6 7 7 8 7 5 6 5 4 3 4 4 3 3 2 3 3 3 3 3 3 3 2 2 2 3 3 3 2 2 2 2 3 2 3 2 2 2 2 2 2 3 4 5
Wind_Direction
44 86 178 206 191 181 164 167 222 241 219 158 200 238 249 210 190 201 204 204 212 221 222 181 167 152 138 140 152 158 145 140 135 125 124 120 117 94 69 68 94 100 109 114
50 268 229 175 154 146 153 170 243 289 42 172 219 263 256 208 204 204 203 208 213 211 197 189 171 155 160 163 165 156 155 155 161 160 150 141 135 132 124 57 69 98 117 122
163 245 180 143 142 144 177 189 208 217 21 42 46 315 295 258 232 225 212 208 207 201 199 190 182 174 170 175 177 172 165 162 167 150 118 94 77 61 57 61 62 41 141 138
215 275 139 146 174 162 229 224 187 169 112 303 74 287 285 270 279 255 241 219 219 212 196 189 186 182 187 191 178 168 166 161 163 153 150 147 145 159 199 185 178 161 152 150
268 221 150 179 206 174 202 141 129 131 145 42 19 193 286 318 282 272 254 233 227 211 199 194 194 193 193 182 167 169 160 164 166 166 167 161 153 166 158 128 131 141 130 129
264 276 194 201 159 140 128 78 64 54 81 271 238 192 278 253 238 256 256 242 227 208 202 200 194 183 179 165 161 168 169 178 175 171 170 171 166 161 150 154 166 192 237 265
349 341 338 97 98 65 96 94 39 357 5 251 238 199 250 256 238 224 232 229 214 198 192 188 180 183 181 177 181 179 181 189 186 179 181 184 182 175 178 187 190 191 207 227
53 307 315 1 159 169 156 140 158 201 226 279 303 234 258 272 279 241 210 194 158 171 190 196 197 196 193 187 186 184 189 196 193 192 194 192 185 182 188 193 193 200 209 214
165 264 307 327 333 139 138 156 163 140 149 274 284 289 307 2 14 28 59 61 36 206 191 202 199 196 194 191 191 193 196 201 202 200 191 187 189 188 195 196 193 203 210 206
153 240 307 316 52 42 135 144 106 124 155 254 291 276 254 281 277 304 290 252 273 275 149 143 169 189 188 184 187 191 197 204 202 194 190 192 193 195 192 179 192 202 203 195
124 157 316 7 93 156 79 98 108 122 153 166 256 272 229 221 227 214 223 225 226 223 198 192 205 203 177 152 156 176 188 191 188 186 183 185 190 189 182 192 208 208 202 195
115 121 263 275 278 232 151 154 146 158 210 177 192 265 284 227 229 204 219 233 226 228 208 172 138 93 103 133 161 168 173 187 196 188 181 185 182 175 186 209 219 202 197 198
122 108 49 346 345 12 77 129 141 135 132 165 189 261 316 346 333 242 218 238 244 242 200 95 79 95 141 168 181 179 186 196 193 178 180 179 179 188 204 216 211 191 189 190
101 122 173 202 225 219 259 238 177 146 175 209 222 247 293 315 309 297 268 243 238 240 203 166 228 274 277 226 196 187 203 196 169 157 167 183 198 203 210 209 193 184 185 187
96 162 210 232 241 217 238 245 221 207 204 207 234 234 257 260 256 254 238 213 175 251 255 215 229 248 264 285 190 198 222 192 158 148 159 208 214 196 188 191 190 183 183 198
72 152 171 299 281 254 262 256 237 230 222 222 237 259 255 251 229 259 234 194 216 246 255 242 231 231 238 232 217 202 214 205 163 164 185 194 165 159 198 208 185 174 184 193
120 138 139 263 303 338 274 243 218 214 213 200 218 237 238 229 229 233 229 213 217 234 240 236 227 225 229 231 217 210 215 209 182 189 194 189 173 171 211 224 180 189 200 188
154 142 152 216 1 244 249 247 194 205 237 223 224 230 216 216 225 241 224 212 229 233 233 240 243 244 241 234 233 218 190 184 191 199 212 202 178 197 205 195 211 212 201 194
167 154 151 158 225 272 282 245 184 194 253 236 226 228 214 198 44 327 267 221 224 230 231 230 229 237 245 233 220 188 185 189 192 213 227 227 203 205 207 216 223 210 191 200
102 129 144 160 201 243 256 265 209 138 270 266 210 212 197 133 105 275 274 250 254 262 246 218 214 181 232 253 197 178 206 207 223 228 228 229 215 209 213 221 223 206 195 210
114 127 170 184 221 261 263 287 110 171 251 269 212 213 186 191 216 243 261 259 248 250 257 177 149 198 231 221 186 209 225 236 242 236 226 225 215 218 217 218 220 206 199 194
180 175 188 171 202 251 256 129 179 224 269 275 266 239 215 225 246 269 261 257 262 270 278 199 190 252 253 207 194 231 245 249 238 217 227 237 233 230 220 185 222 203 185 186
201 194 190 193 213 242 220 214 234 204 236 261 254 262 239 239 259 260 252 258 266 261 269 244 220 261 282 249 214 236 254 235 201 200 240 250 250 244 212 198 207 206 195 200
255 179 171 242 260 258 259 265 271 246 240 256 252 250 223 231 239 245 245 251 259 261 256 252 205 241 279 281 265 245 250 217 192 210 242 241 220 234 236 223 211 209 209 209
220 175 192 244 264 285 275 253 248 266 281 288 289 260 230 219 230 224 229 241 243 254 265 242 213 227 252 267 272 259 238 202 194 219 237 236 223 214 223 235 230 226 224 215
206 191 193 228 226 210 248 253 238 247 263 262 264 284 275 220 225 224 233 242 244 251 261 254 251 244 249 251 265 268 243 206 193 218 239 237 235 228 221 234 282 273 247 241
Height
1489 1495 1499 1498 1498 1499 1502 1506 1509 1506 1501 1503 1506 1506 1503 1502 1503 1504 1505 1506 1507 1508 1511 1512 1514 1515 1517 1519 1521 1522 1523 1524 1525 1526 1527 1528 1529 1530 1531 1531 1532 1532 1532 1532
1495 1497 1493 1493 1495 1498 1502 1507 1508 1505 1500 1503 1506 1505 1502 1501 1501 1501 1502 1503 1505 1507 1509 1510 1512 1513 1515 1517 1519 1520 1522 1523 1524 1525 1527 1528 1529 1529 1530 1531 1532 1532 1532 1533
1495 1494 1490 1492 1496 1500 1502 1506 1506 1506 1503 1504 1506 1509 1504 1500 1500 1500 1500 1501 1502 1504 1506 1508 1510 1511 1513 1515 1517 1518 1520 1522 1523 1525 1526 1527 1528 1528 1529 1530 1531 1531 1532 1532
1493 1490 1491 1493 1496 1498 1504 1499 1501 1503 1510 1515 1511 1521 1508 1502 1500 1499 1498 1499 1500 1502 1504 1506 1507 1509 1511 1513 1515 1517 1519 1520 1522 1523 1524 1525 1526 1527 1528 1529 1530 1531 1531 1531
1494 1491 1492 1495 1494 1495 1499 1497 1501 1504 1509 1516 1514 1520 1514 1504 1503 1499 1497 1497 1497 1499 1501 1503 1505 1506 1509 1511 1513 1515 1517 1519 1520 1522 1523 1524 1525 1526 1527 1528 1528 1529 1530 1530
1492 1490 1490 1491 1491 1492 1495 1501 1505 1510 1515 1524 1516 1520 1517 1507 1501 1497 1496 1495 1496 1497 1498 1500 1503 1505 1507 1509 1511 1513 1515 1517 1519 1520 1521 1522 1523 1524 1525 1526 1527 1527 1528 1528
1496 1493 1490 1490 1493 1495 1498 1510 1523 1525 1529 1527 1516 1517 1514 1500 1496 1495 1494 1494 1495 1495 1496 1498 1500 1502 1505 1507 1509 1511 1513 1515 1516 1518 1519 1520 1522 1522 1523 1524 1525 1525 1526 1526
1505 1505 1494 1491 1493 1497 1500 1507 1524 1530 1531 1527 1517 1518 1507 1496 1494 1493 1493 1493 1494 1494 1495 1496 1498 1500 1502 1504 1506 1508 1511 1512 1514 1516 1517 1518 1520 1520 1521 1522 1523 1524 1524 1524
1507 1505 1494 1492 1491 1493 1500 1506 1508 1520 1523 1527 1522 1513 1502 1494 1494 1493 1493 1493 1493 1493 1494 1496 1497 1498 1500 1502 1504 1506 1508 1509 1511 1513 1515 1516 1517 1518 1519 1520 1521 1521 1522 1522
1500 1505 1497 1494 1492 1494 1496 1502 1512 1519 1527 1530 1523 1516 1510 1499 1496 1495 1494 1493 1493 1494 1494 1495 1496 1497 1498 1500 1501 1504 1505 1507 1508 1510 1512 1513 1515 1516 1517 1517 1518 1518 1519 1519
1497 1505 1503 1498 1498 1500 1501 1505 1510 1518 1520 1528 1528 1519 1498 1496 1494 1494 1493 1493 1493 1493 1494 1494 1495 1496 1497 1498 1499 1501 1503 1504 1506 1507 1509 1510 1511 1513 1513 1514 1515 1515 1516 1516
1499 1506 1510 1503 1497 1496 1498 1501 1508 1516 1520 1522 1525 1518 1493 1492 1491 1491 1492 1492 1493 1493 1493 1494 1494 1495 1496 1496 1498 1499 1500 1502 1503 1504 1506 1507 1508 1510 1510 1511 1512 1512 1513 1513
1499 1507 1514 1510 1507 1501 1500 1501 1504 1510 1517 1523 1523 1513 1493 1491 1490 1490 1491 1491 1492 1492 1492 1493 1493 1494 1494 1495 1496 1497 1498 1499 1501 1502 1503 1504 1505 1506 1507 1508 1509 1509 1510 1510
1496 1505 1511 1513 1509 1504 1503 1502 1503 1507 1515 1518 1514 1506 1496 1493 1491 1490 1490 1490 1490 1491 1491 1492 1492 1493 1494 1494 1495 1496 1496 1497 1498 1499 1500 1501 1502 1503 1504 1505 1506 1506 1507 1507
1497 1505 1503 1502 1500 1500 1500 1500 1501 1504 1505 1509 1504 1501 1495 1492 1491 1489 1489 1489 1490 1490 1490 1491 1491 1492 1492 1493 1493 1494 1495 1495 1496 1497 1498 1498 1499 1500 1501 1502 1503 1503 1503 1504
1498 1503 1503 1503 1499 1499 1500 1498 1498 1498 1499 1500 1498 1497 1490 1489 1489 1488 1488 1488 1488 1488 1489 1490 1490 1491 1491 1491 1492 1492 1493 1493 1494 1495 1495 1496 1496 1497 1498 1499 1499 1500 1500 1500
1501 1504 1507 1510 1503 1500 1503 1495 1494 1494 1493 1494 1495 1492 1488 1488 1487 1486 1486 1486 1486 1487 1487 1488 1488 1488 1489 1489 1490 1490 1490 1491 1492 1492 1493 1493 1494 1494 1494 1495 1496 1496 1497 1497
1500 1504 1510 1511 1507 1510 1496 1487 1487 1489 1489 1488 1487 1486 1486 1485 1485 1484 1484 1485 1485 1485 1485 1486 1486 1486 1487 1487 1488 1488 1488 1488 1489 1489 1490 1490 1491 1491 1491 1492 1492 1493 1493 1494
1495 1501 1509 1513 1511 1504 1492 1486 1486 1488 1488 1484 1484 1484 1484 1484 1484 1484 1483 1483 1483 1483 1484 1484 1484 1484 1484 1484 1485 1485 1485 1486 1486 1486 1487 1487 1488 1488 1488 1488 1489 1489 1490 1490
1495 1498 1506 1511 1508 1505 1491 1483 1482 1486 1488 1481 1481 1482 1482 1482 1486 1484 1482 1481 1481 1482 1482 1482 1482 1482 1481 1481 1482 1482 1482 1482 1483 1483 1484 1484 1484 1484 1485 1485 1485 1485 1486 1486
1499 1502 1504 1507 1506 1497 1486 1482 1483 1491 1488 1480 1479 1479 1480 1480 1481 1480 1479 1479 1479 1479 1480 1480 1479 1479 1479 1479 1479 1479 1479 1479 1480 1480 1481 1481 1481 1481 1481 1481 1482 1482 1482 1482
1496 1500 1502 1504 1504 1497 1482 1482 1485 1483 1479 1478 1478 1478 1478 1477 1477 1478 1478 1477 1477 1477 1477 1477 1477 1477 1477 1477 1476 1476 1476 1476 1477 1477 1477 1477 1477 1478 1478 1478 1478 1478 1479 1479
1490 1490 1490 1491 1489 1482 1480 1479 1479 1479 1478 1477 1477 1476 1476 1476 1476 1475 1475 1475 1475 1475 1475 1475 1475 1474 1474 1474 1474 1473 1473 1473 1473 1473 1473 1473 1474 1474 1474 1474 1474 1474 1475 1475
1485 1484 1486 1486 1481 1478 1477 1477 1476 1476 1476 1476 1475 1475 1474 1474 1474 1474 1473 1473 1473 1473 1473 1472 1472 1472 1472 1471 1471 1470 1470 1470 1470 1469 1469 1470 1470 1470 1470 1471 1471 1471 1470 1471
1480 1482 1483 1482 1478 1476 1474 1474 1474 1474 1474 1473 1472 1472 1472 1472 1472 1471 1471 1471 1471 1470 1470 1469 1469 1469 1469 1469 1468 1467 1467 1466 1466 1466 1466 1466 1466 1466 1466 1466 1467 1467 1467 1467
1474 1476 1478 1476 1472 1472 1471 1471 1471 1471 1471 1470 1470 1469 1469 1469 1469 1469 1469 1469 1468 1468 1467 1467 1466 1466 1466 1466 1465 1464 1464 1463 1462 1462 1462 1462 1462 1462 1462 1462 1462 1463 1464 1464